Tracking 30995 objects as of 7-Jul-2025
HD Live streaming from Space Station
objects crossing your sky now

CZ-4 DEB

Track CZ-4 DEB now!
10-day predictions


NORAD ID: 37613
Int'l Code: 1990-081CZ
Perigee: 763.0 km
Apogee: 987.7 km
Inclination: 98.9 °
Period: 102.3 minutes
Semi major axis: 7246 km
RCS: 0.0075 m2 (small)
Launch date: September 3, 1990
Source: People's Republic of China (PRC)
Launch site: Taiyaun Space Center, China (TSC)

Note: This is SATELLITE DEBRIS
Your satellite tracking list
SOYUZ TMA-18M
SPACE STATION
Track 2 satellite(s)




NASA's NSSDC Master Catalog

Two Line Element Set (TLE):
1 37613U 90081CZ  25185.96129498  .00001861  00000-0  10149-2 0  9990
2 37613  98.8538  13.3035 0155083 306.8941  51.8099 14.07418868 83797
Source of the keplerian elements: AFSPC